Location: Dzierzno
(50.6159°N, 19.2852°E)
Time: 21:14:16
(UTC+00:00)

ATLAS 2AS CENTAUR R/B - Pass Details

Date: 18 November 2025
Orbit: 1047 x 1164 km, 63.7° (Epoch: 05 December)

Event Time Altitude Azimuth Distance (km) Brightness Sun altitude
Rises 17:31:53 0° 315° (NW) 3,854 6.3 -24.9°
Reaches altitude 10° 17:34:34 10° 318° (NW) 2,886 5.5 -25.3°
Maximum altitude 17:41:21 69° 42° (NE) 1,116 2.6 -26.4°
Enters shadow 17:42:14 62° 86° (E) 1,168 2.5 -26.5°
